[[{"header":{"parameterUnit":"m.s-1","parameterCategory":1,"la1":30.2991,"la2":30.254,"lo1":-89.0895,"lo2":-89.0444,"dy":0.0017,"dx":0.0017,"nx":28,"ny":28,"refTime":"2024-06-05T03:00:00:Z","depth":0,"parameterNumber":2,"parameterNumberName":"U-component_of_WINDS"},"data":[0,0,0,0,0,0,0,0,0,0,0,0,0,0,0,0,0,0,0,0,0,0,0,0,0,0,0,0,0,0,0,0,0,0,0,0,0,0,0,0,0,0,0,0,0,0,0,0,0,0,0,0,0,0,0,0,0,0,3.1392,3.1392,0,3.1426,3.1426,3.1427,3.1372,3.137,3.1368,3.1366,3.1403,3.1406,3.1409,0,0,0,0,0,0,0,0,0,0,0,0,0,3.128,3.1282,3.1392,3.1392,3.1393,3.1426,3.1426,3.1427,3.1372,3.137,3.1368,3.1365,3.1402,3.1406,3.1409,0,0,0,0,0,0,0,0,0,0,0,0,0,3.1323,3.1283,3.1392,3.1369,3.1368,3.1426,3.1426,3.1427,3.1373,3.137,3.1367,3.1364,3.1401,3.1405,3.1409,3.1491,0,0,3.1422,3.1424,0,0,0,0,0,0,0,0,3.132,3.1327,3.1372,3.1371,3.1369,3.1392,3.14,3.1449,3.1373,3.1371,3.1366,3.1363,3.1402,3.1406,3.1418,3.1493,3.1495,3.1422,3.1425,3.1427,3.1428,0,0,0,0,0,0,0,3.1317,3.1325,3.1405,3.1373,3.1371,3.1358,3.1361,3.1409,3.1402,3.1371,3.1367,3.1372,3.14,3.1415,3.1419,3.1495,3.1422,3.1426,3.1428,3.143,3.1635,3.1637,0,0,0,0,0,0,3.1317,3.1323,3.1404,3.1406,3.1337,3.1362,3.1365,3.1387,3.1401,3.1401,3.1374,3.1369,3.1409,3.1414,3.142,3.1514,3.1427,3.143,3.1433,3.1632,3.1635,3.1639,0,0,0,0,0,0,3.1315,3.1325,3.1403,3.1363,3.1372,3.1367,3.1392,3.139,3.1403,3.1404,3.1402,3.139,3.1407,3.1414,3.1473,3.1514,3.1432,3.1436,3.1628,3.1633,3.1637,3.1704,0,0,0,0,0,0,3.1312,3.1324,3.1356,3.1365,3.1375,3.1456,3.1395,3.1392,3.141,3.1404,3.1418,3.1417,3.1405,3.1467,3.1477,3.1518,3.1439,3.1624,3.163,3.1636,3.1698,3.171,3.172,0,0,0,0,0,3.1308,3.1374,3.1357,3.1368,3.1414,3.1458,3.1464,3.1448,3.1414,3.1445,3.1444,3.1417,3.1509,3.1474,3.1484,3.1528,3.1622,3.1629,3.1635,3.1693,3.1707,3.172,0,0,0,0,0,0,3.1372,3.1375,3.1356,3.1428,3.1443,3.1449,3.1487,3.1465,3.149,3.1483,3.1463,3.1467,3.1529,3.1535,3.1496,3.1606,3.1559,3.1569,3.1599,3.1614,3.1625,3.1621,3.1443,0,0,0,0,0,3.1394,3.143,3.1431,3.1494,3.1502,3.1494,3.1512,3.1498,3.1514,3.152,3.1524,3.154,3.1571,3.1593,3.1623,3.1699,3.1699,3.1734,3.1745,3.1754,3.1762,3.1798,3.1813,3.166,3.166,3.166,0,0,3.1441,3.1447,3.1471,3.1507,3.1517,3.1553,3.1499,3.1541,3.1568,3.1527,3.1581,3.1584,3.1601,3.1667,3.1697,3.1674,3.1804,3.1763,3.177,3.1772,3.1807,3.1821,3.1834,3.1665,3.1664,3.1663,0,0,3.1544,3.1553,3.1605,3.1615,3.163,3.1623,3.1636,3.1645,3.1645,3.1699,3.1668,3.1699,3.1756,3.1767,3.1781,3.1885,3.1859,3.1895,3.1954,3.199,3.2002,3.2012,3.2046,3.2059,3.1903,3.1904,3.1904,0,3.16,3.1653,3.1634,3.1677,3.1692,3.1655,3.1706,3.1718,3.1742,3.1754,3.1727,3.1794,3.1804,3.187,3.1895,3.1909,3.192,3.1893,3.2001,3.2012,3.2021,3.2053,3.2067,3.1908,3.1907,3.1907,3.1906,0,3.172,3.1757,3.1797,3.1819,3.1839,3.1887,3.1874,3.1896,3.188,3.1876,3.1931,3.1939,3.1968,3.1984,3.197,3.2048,3.2033,3.2005,3.1957,3.204,3.207,3.2082,3.1913,3.1912,3.1911,3.191,0,0,3.1865,3.1874,3.1888,3.1896,3.1909,3.1937,3.1982,3.2009,3.2027,3.2045,3.208,3.2128,3.21,3.2115,3.2102,3.2134,3.2212,3.2102,3.2102,3.2119,3.2295,3.2314,3.2329,3.2196,3.2198,3.22,3.2293,0,3.1965,3.204,3.2022,3.2096,3.2129,3.2093,3.2131,3.2143,3.214,3.2167,3.2164,3.2196,3.216,3.2168,3.2198,3.2196,3.2247,3.219,3.2227,3.2228,3.2221,3.2345,3.2366,3.2453,3.2304,3.2307,3.2308,0,3.2091,3.2111,3.2187,3.2191,3.2204,3.2239,3.226,3.2287,3.2299,3.2294,3.231,3.2289,3.2332,3.2286,3.2343,3.2304,3.2319,3.232,3.2323,3.2324,3.2272,3.2347,3.2481,3.2493,3.2327,3.2325,3.2324,0,3.2185,3.2231,3.2281,3.229,3.2297,3.2321,3.2325,3.2334,3.235,3.237,3.2379,3.2404,3.2417,3.2437,3.2423,3.2391,3.2482,3.2435,3.2477,3.2478,3.2497,3.2495,3.2632,3.2511,3.251,3.251,3.251,0,3.2296,3.2344,3.2323,3.2354,3.2405,3.2385,3.2436,3.2436,3.2444,3.2474,3.2446,3.2474,3.2455,3.2482,3.2472,3.2519,3.2527,3.2523,3.2519,3.2524,3.2524,3.2531,3.2524,3.2514,3.2513,3.2512,3.2512,0,3.2409,3.2398,3.2449,3.2451,3.2452,3.2489,3.249,3.2518,3.2513,3.255,3.2558,3.2549,3.2579,3.2567,3.26,3.2593,3.2652,3.2642,3.2648,3.2644,3.2686,3.2681,3.283,3.2848,3.2718,3.2719,3.272,0,3.248,3.2515,3.2519,3.2535,3.2541,3.257,3.2585,3.2566,3.2583,3.2597,3.2623,3.265,3.2671,3.272,3.2716,3.274,3.2728,3.2779,3.2732,3.2734,3.2725,3.2722,3.2724,3.2788,3.2789,3.2791,3.2792,0,3.2605,3.2597,3.262,3.264,3.2658,3.2674,3.2687,3.2703,3.2684,3.2705,3.2734,3.275,3.2781,3.2807,3.2828,3.2832,3.2808,3.2807,3.2817,3.2821,3.2821,3.2818,3.267,3.2803,3.2802,3.2801,3.28,3.28,3.2697,3.2725,3.2731,3.2756,3.2763,3.2775,3.2801,3.2797,3.282,3.2843,3.2831,3.2864,3.2872,3.2897,3.2904,3.2929,3.291,3.2926,3.2929,3.2933,3.2937,3.2819,3.2934,3.2933,3.2933,3.2933,3.2933,0,3.2818,3.2819,3.2843,3.286,3.288,3.2855,3.2868,3.2885,3.2914,3.2924,3.2943,3.2975,3.3,3.2998,3.302,3.304,3.303,3.3047,3.3043,3.3044,3.2955,3.2942,3.3054,3.3054,3.3054,3.3054,3.3054,3.3054,3.2883,3.2927,3.2919,3.2967,3.2968,3.2999,3.3007,3.3018,3.3024,3.3061,3.308,3.3078,3.3082,3.3104,3.3125,3.3124,3.3132,3.3152,3.3147,3.3063,3.3051,3.3039,3.3027,3.3155,3.3155,3.3233,3.3234,3.3234]},{"header":{"parameterUnit":"m.s-1","parameterCategory":1,"la1":30.2991,"la2":30.254,"lo1":-89.0895,"lo2":-89.0444,"dy":0.0017,"dx":0.0017,"nx":28,"ny":28,"refTime":"2024-06-05T03:00:00:Z","depth":0,"parameterNumber":3,"parameterNumberName":"V-component_of_WINDS"},"data":[0,0,0,0,0,0,0,0,0,0,0,0,0,0,0,0,0,0,0,0,0,0,0,0,0,0,0,0,0,0,0,0,0,0,0,0,0,0,0,0,0,0,0,0,0,0,0,0,0,0,0,0,0,0,0,0,0,0,2.828,2.8282,0,2.846,2.8462,2.8464,2.8492,2.849,2.8488,2.8487,2.8669,2.8675,2.8681,0,0,0,0,0,0,0,0,0,0,0,0,0,2.7958,2.7964,2.828,2.8282,2.8284,2.846,2.8462,2.8464,2.8492,2.849,2.8488,2.8486,2.8667,2.8674,2.8682,0,0,0,0,0,0,0,0,0,0,0,0,0,2.8114,2.7966,2.828,2.8319,2.8325,2.8459,2.8462,2.8465,2.8492,2.849,2.8488,2.8485,2.8664,2.8674,2.8683,2.879,0,0,2.8712,2.8716,0,0,0,0,0,0,0,0,2.8105,2.8125,2.8311,2.8317,2.8323,2.8451,2.8415,2.8574,2.8493,2.8429,2.8487,2.8484,2.8598,2.8613,2.8652,2.8798,2.8806,2.8713,2.8719,2.8723,2.8725,0,0,0,0,0,0,0,2.8094,2.8118,2.8351,2.8314,2.8321,2.8327,2.8347,2.8445,2.8525,2.8434,2.8436,2.8457,2.8601,2.8643,2.8656,2.8809,2.8713,2.8721,2.8727,2.8731,2.905,2.9053,0,0,0,0,0,0,2.8076,2.8109,2.8345,2.8356,2.8206,2.8335,2.8357,2.8412,2.8524,2.8538,2.8459,2.8458,2.8628,2.8645,2.8663,2.8795,2.8723,2.8731,2.8737,2.9048,2.9051,2.9054,0,0,0,0,0,0,2.8069,2.8097,2.8338,2.8233,2.8265,2.8343,2.8405,2.8417,2.8459,2.8543,2.8557,2.8488,2.8626,2.8649,2.8758,2.8801,2.8736,2.8744,2.9044,2.9049,2.9053,2.9059,0,0,0,0,0,0,2.806,2.8094,2.8136,2.8234,2.827,2.8431,2.8408,2.8422,2.8475,2.8476,2.8573,2.8587,2.8626,2.8744,2.8767,2.8813,2.8752,2.9041,2.9046,2.9051,2.9055,2.9063,2.907,0,0,0,0,0,2.8048,2.8131,2.8138,2.8167,2.8324,2.8433,2.8454,2.8498,2.8479,2.8521,2.8575,2.8584,2.8793,2.8754,2.8781,2.8831,2.9038,2.9045,2.9051,2.9052,2.9062,2.9069,0,0,0,0,0,0,2.8036,2.8144,2.8154,2.8271,2.8343,2.8438,2.8493,2.8507,2.8585,2.8582,2.8633,2.8655,2.876,2.8806,2.8762,2.8939,2.8914,2.8926,2.8906,2.8915,2.8922,2.8909,2.876,0,0,0,0,0,2.8047,2.8127,2.8217,2.8311,2.8347,2.8414,2.8463,2.8491,2.8567,2.8597,2.8659,2.8732,2.8814,2.8867,2.8947,2.9062,2.9083,2.9109,2.9116,2.9122,2.9131,2.9195,2.9207,2.9075,2.9075,2.9075,0,0,2.807,2.8139,2.8186,2.8311,2.837,2.8451,2.8439,2.8526,2.8586,2.861,2.8717,2.8764,2.8849,2.8961,2.9013,2.9003,2.9173,2.913,2.9134,2.9141,2.9203,2.9215,2.9226,2.9079,2.9078,2.9078,0,0,2.8153,2.8214,2.8299,2.8358,2.8448,2.8492,2.8512,2.8605,2.8638,2.8746,2.8765,2.8838,2.8978,2.9038,2.9086,2.9192,2.9202,2.9216,2.9253,2.9314,2.9325,2.9334,2.9371,2.9384,2.9226,2.9226,2.9226,0,2.817,2.8294,2.8341,2.8427,2.848,2.8507,2.8592,2.8648,2.8758,2.8794,2.8781,2.8958,2.9017,2.9142,2.9168,2.9207,2.9231,2.9205,2.932,2.933,2.9339,2.9375,2.9389,2.9227,2.9227,2.9226,2.9226,0,2.8311,2.8396,2.8454,2.8561,2.8621,2.8707,2.8765,2.882,2.8843,2.8887,2.8996,2.9067,2.9162,2.9194,2.9217,2.9323,2.9314,2.9309,2.9285,2.9352,2.9387,2.9401,2.9228,2.9228,2.9228,2.9227,0,0,2.8392,2.8523,2.8543,2.8592,2.8693,2.8759,2.8845,2.8939,2.8985,2.906,2.9133,2.9251,2.9248,2.9303,2.9332,2.9386,2.9464,2.9375,2.9378,2.9389,2.9585,2.9587,2.9602,2.9472,2.9475,2.9477,2.9577,0,2.8487,2.8642,2.8686,2.8817,2.8896,2.8921,2.8996,2.9065,2.9109,2.9182,2.923,2.9313,2.9303,2.9336,2.939,2.9443,2.9504,2.9436,2.9539,2.9542,2.9517,2.9621,2.9624,2.9715,2.9591,2.9594,2.9595,0,2.8619,2.8697,2.8836,2.8926,2.896,2.9027,2.9116,2.9186,2.9264,2.9292,2.9354,2.9378,2.9468,2.9438,2.9562,2.9515,2.956,2.9592,2.9596,2.9607,2.9573,2.9634,2.9746,2.9759,2.9617,2.9615,2.9614,0,2.8663,2.8803,2.8904,2.8945,2.9053,2.9099,2.9146,2.9222,2.9275,2.9352,2.9387,2.9474,2.9521,2.9587,2.9634,2.9608,2.9753,2.9728,2.9778,2.9777,2.9808,2.9805,2.9927,2.9837,2.9837,2.9836,2.9836,0,2.8764,2.8848,2.8926,2.8988,2.9082,2.9131,2.9222,2.927,2.9338,2.9409,2.9436,2.9502,2.956,2.9634,2.9671,2.9767,2.9789,2.9813,2.9822,2.9811,2.9807,2.984,2.9835,2.984,2.9839,2.9839,2.9838,0,2.883,2.8885,2.8997,2.909,2.9115,2.918,2.9259,2.932,2.9364,2.9454,2.9478,2.9548,2.9636,2.9689,2.98,2.9825,2.9931,2.9938,2.9905,2.9909,2.9957,2.9951,3.0104,3.0126,3.0021,3.0022,3.0023,0,2.8891,2.8956,2.9055,2.9105,2.9153,2.9233,2.9287,2.9338,2.9393,2.9488,2.9537,2.9626,2.9701,2.984,2.99,2.9985,2.9993,3.0041,3.0006,2.9993,2.9994,2.9989,2.9995,3.0047,3.0048,3.0048,3.0049,0,2.8993,2.9017,2.9095,2.9182,2.9246,2.9318,2.9388,2.9427,2.949,2.9551,2.9641,2.9699,2.9812,2.9901,2.9991,3.0038,3.0054,3.006,3.0076,3.0065,3.0043,3.0055,2.992,3.0056,3.0055,3.0055,3.0054,3.0054,2.9058,2.9116,2.9196,2.9281,2.934,2.9405,2.9467,2.9519,2.9596,2.9693,2.9718,2.9812,2.9889,3.0012,3.0061,3.0135,3.0127,3.0151,3.0157,3.0162,3.0163,3.0031,3.0151,3.0151,3.0151,3.0151,3.0151,0,2.916,2.9213,2.9291,2.9389,2.9456,2.9466,2.9545,2.96,2.9683,2.9754,2.9826,2.993,3.0016,3.0083,3.017,3.0217,3.0226,3.0238,3.0235,3.0245,3.0164,3.0142,3.0229,3.0229,3.0229,3.0229,3.0229,3.0229,2.9222,2.9321,2.9355,2.9484,2.9535,2.9629,2.9673,2.9733,2.9789,2.9904,2.9976,3.0019,3.0088,3.0181,3.0259,3.0277,3.0308,3.0318,3.0337,3.026,3.0251,3.0243,3.0222,3.0325,3.0325,3.0412,3.0412,3.0413]}]]